Tracking 29487 objects as of 11-Sep-2024
HD Live streaming from Space Station
objects crossing your sky now

ONEWEB-0058

Track ONEWEB-0058 now!
10-day predictions
ONEWEB-0058 is classified as:


NORAD ID: 45161
Int'l Code: 2020-008AG
Perigee: 1,227.5 km
Apogee: 1,230.2 km
Inclination: 87.9 °
Period: 109.9 minutes
Semi major axis: 7599 km
RCS: Unknown
Launch date: February 6, 2020
Source: United Kingdom (UK)
Launch site: TYURATAM MISSILE AND SPACE COMPLEX (TTMTR)
Your satellite tracking list
Your tracking list is empty




NASA's NSSDC Master Catalog

Two Line Element Set (TLE):
1 45161U 20008AG  24255.51696829  .00000442  00000-0  12300-2 0  9999
2 45161  87.8982 164.3882 0001795  77.1230 283.0098 13.10371216224873
Source of the keplerian elements: AFSPC